Rice Lake, WI

6:50 AM CDT on July 26, 2017 (GMT -0500)
Rice Lake Regional-Carl's

Weather History for KRPD - May, 2013

Change the Weather History Date:

Thursday, May 2, 2013

  Actual Average Record
Temperature  
Mean Temperature 32 °F -  
Max Temperature 33 °F 61 °F 77 °F (2012)
Min Temperature 30 °F 40 °F 26 °F (2004)
Degree Days  
Heating Degree Days 34    
Moisture  
Dew Point 30 °F    
Average Humidity 92    
Maximum Humidity 100    
Minimum Humidity 81    
Precipitation  
Precipitation 0.35 in - - ()
Sea Level Pressure  
Sea Level Pressure 30.47 in    
Wind  
Wind Speed 9 mph (North)    
Max Wind Speed 15 mph    
Max Gust Speed 21 mph    
Visibility 4 miles    
Events Snow    
Averages and records for this station are not official NWS values.
T = Trace of Precipitation, MM = Missing Value Source: NWS Daily Summary

Daily Weather History Graph

Daily Weather History Graph

Search for Another Location

Airport or City:

Trip Planner

Search our weather history database for the weather conditions in past years. The results will help you decide how hot, cold, wet, or windy it might be!

Date:

Astronomy

May. 02, 2013 Rise Set
Actual Time 5:53 AM CDT 8:15 PM CDT
Civil Twilight 5:20 AM CDT 8:48 PM CDT
Nautical Twilight 4:39 AM CDT 9:29 PM CDT
Astronomical Twilight 3:53 AM CDT 10:15 PM CDT
Moon 2:02 AM CDT (5/2) 12:44 PM CDT (5/2)
Length of Visible Light 15h 27m
Length of Day
14h 21m
Waning Gibbous, 47% of the Moon is Illuminated
May 2
Waning Gibbous
May 9
New
May 17
First Quarter
May 24
Full
May 31
Last Quarter

Hourly Weather History & Observations

Time (CDT) Temp. Windchill Dew Point Humidity Pressure Visibility Wind Dir Wind Speed Gust Speed Precip Events Conditions
12:15 AM 32.0 °F 24.8 °F 32.0 °F 100% 30.47 in 2.5 mi North 8.1 mph - N/A Snow Light Snow
12:35 AM 32.0 °F 24.2 °F 32.0 °F 100% 30.47 in 0.8 mi North 9.2 mph - 0.01 in Snow Light Snow
12:55 AM 32.0 °F 26.4 °F 32.0 °F 100% 30.49 in 0.5 mi North 5.8 mph - 0.03 in Snow Snow
1:15 AM 32.0 °F 24.8 °F 32.0 °F 100% 30.49 in 0.5 mi North 8.1 mph - 0.02 in Snow Snow
1:35 AM 32.0 °F 26.4 °F 32.0 °F 100% 30.48 in 0.8 mi North 5.8 mph - 0.03 in Snow Light Snow
1:55 AM 32.0 °F 24.8 °F 32.0 °F 100% 30.50 in 0.5 mi North 8.1 mph - 0.05 in Snow Snow
2:15 AM 32.0 °F 23.6 °F 32.0 °F 100% 30.50 in 0.5 mi North 10.4 mph - 0.01 in Snow Light Snow
2:35 AM 32.0 °F 25.6 °F 32.0 °F 100% 30.49 in 0.5 mi North 6.9 mph - 0.03 in Snow Snow
2:55 AM 32.0 °F 23.6 °F 32.0 °F 100% 30.48 in 0.2 mi North 10.4 mph - 0.05 in Snow Snow
3:15 AM 32.0 °F 25.6 °F 32.0 °F 100% 30.47 in 0.8 mi North 6.9 mph - N/A Snow Light Snow
3:35 AM 32.0 °F 27.5 °F 32.0 °F 100% 30.48 in 0.8 mi NNW 4.6 mph - 0.01 in Snow Light Snow
3:55 AM 32.0 °F 28.7 °F 32.0 °F 100% 30.49 in 0.5 mi NNW 3.5 mph - 0.03 in Snow Snow
4:15 AM 32.0 °F 24.8 °F 32.0 °F 100% 30.49 in 0.5 mi North 8.1 mph - 0.02 in Snow Snow
4:55 AM 32.0 °F 24.8 °F 30.2 °F 93% 30.48 in 0.5 mi North 8.1 mph - 0.01 in Snow Snow
5:15 AM 32.0 °F 23.6 °F 30.2 °F 93% 30.48 in 0.5 mi North 10.4 mph - 0.01 in Snow Snow
5:35 AM 32.0 °F 24.8 °F 30.2 °F 93% 30.47 in 0.2 mi North 8.1 mph - 0.03 in Snow Snow
5:55 AM 32.0 °F 25.6 °F 30.2 °F 93% 30.49 in 0.2 mi North 6.9 mph - 0.05 in Snow Snow
6:15 AM 32.0 °F 25.6 °F 30.2 °F 93% 30.50 in 0.2 mi North 6.9 mph - 0.03 in Snow Heavy Snow
6:35 AM 30.2 °F 23.4 °F 30.2 °F 100% 30.49 in 0.2 mi North 6.9 mph - 0.06 in Snow Snow
6:55 AM 30.2 °F 23.4 °F 30.2 °F 100% 30.49 in 0.2 mi North 6.9 mph - 0.01 in Snow Heavy Snow
7:15 AM 30.2 °F 22.6 °F 30.2 °F 100% 30.49 in 0.2 mi North 8.1 mph - 0.03 in Snow Heavy Snow
7:35 AM - - - N/A% 30.49 in - North 8.1 mph - N/A   Unknown
8:15 AM 30.2 °F 24.3 °F 30.2 °F 100% 30.51 in 0.8 mi NNW 5.8 mph - N/A Snow Light Snow
8:35 AM 30.2 °F 23.4 °F 28.4 °F 93% 30.51 in 0.8 mi NNW 6.9 mph - N/A Snow Light Snow
9:15 AM 32.0 °F 24.8 °F 30.2 °F 93% 30.52 in 0.5 mi NNW 8.1 mph - N/A Snow Snow
9:35 AM 30.2 °F 22.6 °F 28.4 °F 93% 30.50 in 0.8 mi NNW 8.1 mph - N/A Snow Light Snow
9:55 AM 32.0 °F 24.8 °F 30.2 °F 93% 30.50 in 0.8 mi NNW 8.1 mph - N/A Snow Light Snow
10:15 AM 32.0 °F 24.8 °F 30.2 °F 93% 30.50 in 1.5 mi NNW 8.1 mph - N/A Snow Light Snow
10:35 AM 32.0 °F 25.6 °F 30.2 °F 93% 30.50 in 0.5 mi North 6.9 mph - 0.01 in Snow Snow
10:55 AM 32.0 °F 24.2 °F 30.2 °F 93% 30.50 in 0.5 mi NNW 9.2 mph - 0.02 in Snow Snow
11:15 AM 32.0 °F 24.8 °F 30.2 °F 93% 30.51 in 0.5 mi North 8.1 mph - 0.01 in Snow Snow
11:35 AM 32.0 °F 24.2 °F 30.2 °F 93% 30.50 in 1.0 mi NNW 9.2 mph - 0.01 in Snow Light Snow
11:55 AM 32.0 °F 22.5 °F 30.2 °F 93% 30.49 in 1.2 mi North 12.7 mph 20.7 mph 0.01 in Snow Light Snow
12:15 PM 33.8 °F 26.4 °F 30.2 °F 87% 30.49 in 3.0 mi North 9.2 mph - N/A Snow Light Snow
12:35 PM 33.8 °F 25.3 °F 30.2 °F 87% 30.49 in 5.0 mi NNW 11.5 mph 16.1 mph N/A   Overcast
12:55 PM 33.8 °F 25.3 °F 30.2 °F 87% 30.49 in 10.0 mi North 11.5 mph 18.4 mph N/A   Overcast
1:15 PM 33.8 °F 24.3 °F 30.2 °F 87% 30.48 in 5.0 mi North 13.8 mph - N/A   Haze
1:35 PM 33.8 °F 26.4 °F 30.2 °F 87% 30.49 in 4.0 mi North 9.2 mph 18.4 mph N/A   Haze
1:55 PM 33.8 °F 26.4 °F 30.2 °F 87% 30.48 in 10.0 mi North 9.2 mph - N/A   Overcast
2:15 PM 33.8 °F 25.8 °F 28.4 °F 81% 30.48 in 10.0 mi North 10.4 mph 20.7 mph N/A   Overcast
2:35 PM 33.8 °F 25.8 °F 28.4 °F 81% 30.49 in 5.0 mi North 10.4 mph 19.6 mph N/A Snow Light Snow
2:55 PM 33.8 °F 25.3 °F 28.4 °F 81% 30.49 in 5.0 mi North 11.5 mph - N/A Snow Light Snow
3:15 PM 33.8 °F 23.9 °F 30.2 °F 87% 30.48 in 3.0 mi North 15.0 mph - N/A Snow Light Snow
3:35 PM 33.8 °F 24.3 °F 30.2 °F 87% 30.47 in 3.0 mi North 13.8 mph 17.3 mph N/A Snow Light Snow
4:15 PM 32.0 °F 22.5 °F 30.2 °F 93% 30.46 in 4.0 mi NNE 12.7 mph 19.6 mph N/A Snow Light Snow
4:35 PM 32.0 °F 22.5 °F 30.2 °F 93% 30.46 in 3.0 mi North 12.7 mph - N/A Snow Light Snow
4:55 PM 32.0 °F 22.1 °F 30.2 °F 93% 30.46 in 4.0 mi North 13.8 mph - N/A Snow Light Snow
5:15 PM 32.0 °F 23.0 °F 30.2 °F 93% 30.46 in 7.0 mi North 11.5 mph - N/A Snow Light Snow
5:35 PM 32.0 °F 24.2 °F 30.2 °F 93% 30.45 in 7.0 mi North 9.2 mph - N/A Snow Light Snow
5:55 PM 32.0 °F 23.0 °F 30.2 °F 93% 30.45 in 7.0 mi NNE 11.5 mph - N/A   Overcast
6:15 PM 32.0 °F 23.0 °F 30.2 °F 93% 30.45 in 10.0 mi North 11.5 mph - N/A   Overcast
6:35 PM 32.0 °F 23.0 °F 30.2 °F 93% 30.45 in 10.0 mi North 11.5 mph - N/A   Overcast
6:55 PM 32.0 °F 23.0 °F 30.2 °F 93% 30.45 in 10.0 mi North 11.5 mph - N/A   Overcast
7:15 PM 32.0 °F 22.5 °F 30.2 °F 93% 30.44 in 10.0 mi NNE 12.7 mph - N/A   Overcast
7:35 PM 32.0 °F 23.6 °F 30.2 °F 93% 30.44 in 10.0 mi NNE 10.4 mph - N/A   Overcast
8:15 PM 32.0 °F 21.6 °F 28.4 °F 87% 30.44 in 10.0 mi North 15.0 mph - N/A   Overcast
8:35 PM 32.0 °F 22.1 °F 28.4 °F 87% 30.44 in 10.0 mi North 13.8 mph - N/A   Overcast
8:55 PM 32.0 °F 23.6 °F 28.4 °F 87% 30.44 in 10.0 mi North 10.4 mph - N/A   Overcast
9:15 PM 32.0 °F 23.6 °F 28.4 °F 87% 30.45 in 10.0 mi North 10.4 mph - N/A   Overcast
9:35 PM 32.0 °F 22.5 °F 28.4 °F 87% 30.44 in 10.0 mi North 12.7 mph - N/A   Overcast
9:55 PM 32.0 °F 23.0 °F 28.4 °F 87% 30.44 in 10.0 mi North 11.5 mph - N/A   Overcast
10:15 PM 32.0 °F 24.2 °F 28.4 °F 87% 30.44 in 10.0 mi North 9.2 mph - N/A   Overcast
10:35 PM 32.0 °F 24.2 °F 28.4 °F 87% 30.44 in 10.0 mi North 9.2 mph - N/A Snow Light Snow
10:55 PM 32.0 °F 24.2 °F 28.4 °F 87% 30.43 in 10.0 mi North 9.2 mph - N/A   Overcast
11:15 PM 32.0 °F 24.2 °F 28.4 °F 87% 30.44 in 4.0 mi North 9.2 mph - N/A Snow Light Snow
11:35 PM 32.0 °F 24.2 °F 28.4 °F 87% 30.42 in 4.0 mi North 9.2 mph - N/A Snow Light Snow
11:55 PM 32.0 °F 23.6 °F 28.4 °F 87% 30.41 in 7.0 mi North 10.4 mph - N/A   Overcast